Weather History for Doha, Qatar

Change the Weather History Date:

Monday, September 9, 2013

  Actual Average Record
Temperature  
Mean Temperature 95 °F -  
Max Temperature 102 °F 99 °F 118 °F (2010)
Min Temperature 88 °F 78 °F 80 °F (2003)
Cooling Degree Days 30    
Growing Degree Days 45 (Base 50)    
Moisture  
Dew Point 76 °F    
Average Humidity 57    
Maximum Humidity 75    
Minimum Humidity 27    
Precipitation  
Precipitation 0.00 in 0.00 in - ()
Sea Level Pressure  
Sea Level Pressure 29.67 in    
Wind  
Wind Speed 7 mph ()    
Max Wind Speed 16 mph    
Max Gust Speed -    
Visibility 6.4 miles    
Events      
Averages and records for this station are not official NWS values.
T = Trace of Precipitation, MM = Missing Value Source: Averaged Metar Reports

Daily Weather History Graph

Daily Weather History Graph

Search for Another Location

Airport:

Trip Planner

Search our weather history database for the weather conditions in past years. The results will help you decide how hot, cold, wet, or windy it might be!

Date:

Astronomy

Sep. 09, 2013 Rise Set
Actual Time 5:17 AM AST 5:44 PM AST
Civil Twilight 4:54 AM AST 6:07 PM AST
Nautical Twilight 4:27 AM AST 6:34 PM AST
Astronomical Twilight 4:00 AM AST 7:01 PM AST
Moon 8:44 AM AST (9/9) 8:15 PM AST (9/9)
Length of Visible Light 13h 12m
Length of Day
12h 26m
Waxing Crescent, 16% of the Moon is Illuminated
Sep 9
Waxing Crescent
Sep 12
First Quarter
Sep 19
Full
Sep 27
Last Quarter
Oct 5
New

Hourly Weather History & Observations

Time (AST) Temp. Heat Index Dew Point Humidity Pressure Visibility Wind Dir Wind Speed Gust Speed Precip Events Conditions
12:00 AM 91.4 °F 102.5 °F 75.2 °F 59% 29.62 in - SE 4.6 mph - N/A   Clear
1:00 AM 91.4 °F 105.1 °F 77.0 °F 63% 29.62 in - SE 3.5 mph - N/A   Clear
1:30 AM 91.4 °F 105.1 °F 77.0 °F 63% 29.62 in - SSE 4.6 mph - N/A   Clear
2:00 AM 91.4 °F 102.5 °F 75.2 °F 59% 29.62 in - SE 9.2 mph - N/A   Clear
3:00 AM 91 °F - 78 °F 59% 29.64 in 7 mi SSE 5.8 mph - -  
3:00 AM 91.4 °F 107.2 °F 78.8 °F 66% 29.62 in - SSE 5.8 mph - N/A   Clear
4:00 AM 91.4 °F 107.2 °F 78.8 °F 66% 29.62 in - South 3.5 mph - N/A   Clear
4:30 AM 89.6 °F 104.7 °F 78.8 °F 70% 29.62 in - South 4.6 mph - N/A   Clear
5:00 AM 89.6 °F 104.7 °F 78.8 °F 70% 29.65 in - SSE 5.8 mph - N/A   Clear
5:30 AM 89.6 °F 108.2 °F 80.6 °F 75% 29.65 in - SSE 4.6 mph - N/A   Clear
6:00 AM 89.6 °F 108.2 °F 80.6 °F 75% 29.68 in 6.2 mi SSE 5.8 mph - N/A   Partly Cloudy
6:30 AM 89.6 °F 104.7 °F 78.8 °F 70% 29.68 in - SSW 5.8 mph - N/A   Clear
7:00 AM 91.4 °F 107.2 °F 78.8 °F 66% 29.68 in 6.2 mi SW 6.9 mph - N/A   Partly Cloudy
7:30 AM 91.4 °F 107.2 °F 78.8 °F 66% 29.71 in 6.2 mi Variable 3.5 mph - N/A   Partly Cloudy
8:00 AM 93.2 °F 110.2 °F 78.8 °F 63% 29.71 in 6.2 mi South 4.6 mph - N/A   Partly Cloudy
8:30 AM 95.0 °F 112.2 °F 78.8 °F 59% 29.71 in - SE 12.7 mph - N/A   Clear
9:00 AM 95 °F - 78 °F 48% 29.72 in 6 mi SE 12.7 mph - -  
9:00 AM 95.0 °F 109.7 °F 77.0 °F 56% 29.71 in - SE 12.7 mph - N/A   Clear
9:30 AM 96.8 °F 109.6 °F 75.2 °F 50% 29.71 in - SE 13.8 mph - N/A   Clear
10:00 AM 98.6 °F 109.2 °F 73.4 °F 44% 29.71 in - SE 12.7 mph - N/A   Clear
10:30 AM 98.6 °F 107.7 °F 71.6 °F 42% 29.71 in - SE 11.5 mph - N/A   Clear
11:00 AM 98.6 °F 105.5 °F 69.8 °F 39% 29.71 in - SE 12.7 mph - N/A   Clear
11:30 AM 100.4 °F 103.6 °F 64.4 °F 31% 29.68 in - SE 15.0 mph - N/A   Clear
12:00 PM 100.4 °F 101.3 °F 60.8 °F 27% 29.68 in - SE 15.0 mph - N/A   Clear
1:00 PM 100.4 °F 106.3 °F 68.0 °F 35% 29.68 in - East 16.1 mph - N/A   Clear
1:30 PM 98.6 °F 107.7 °F 71.6 °F 42% 29.65 in - ESE 13.8 mph - N/A   Clear
2:00 PM 98.6 °F 109.2 °F 73.4 °F 44% 29.65 in - ESE 15.0 mph - N/A   Clear
3:00 PM 98.6 °F 111.7 °F 75.2 °F 47% 29.65 in - ESE 15.0 mph - N/A   Clear
4:00 PM 96.8 °F 112.2 °F 77.0 °F 53% 29.65 in - East 16.1 mph - N/A   Clear
4:30 PM 95.0 °F 109.7 °F 77.0 °F 56% 29.65 in - East 15.0 mph - N/A   Clear
5:00 PM 95.0 °F 107.4 °F 75.2 °F 53% 29.65 in - East 12.7 mph - N/A   Clear
6:00 PM 93.2 °F 102.4 °F 73.4 °F 52% 29.65 in - East 10.4 mph - N/A   Clear
6:30 PM 93.2 °F 105.0 °F 75.2 °F 56% 29.68 in - East 8.1 mph - N/A   Clear
7:00 PM 93.2 °F 102.4 °F 73.4 °F 52% 29.68 in - ENE 5.8 mph - N/A   Clear
8:00 PM 93.2 °F 105.0 °F 75.2 °F 56% 29.68 in - East 8.1 mph - N/A   Clear
9:00 PM 92 °F - 80 °F 60% 29.71 in 7 mi ENE 8.1 mph - -  
9:00 PM 91.4 °F 111.0 °F 80.6 °F 71% 29.71 in - ENE 8.1 mph - N/A   Clear
9:30 PM 91.4 °F 107.2 °F 78.8 °F 66% 29.71 in - East 6.9 mph - N/A   Clear
10:00 PM 91.4 °F 107.2 °F 78.8 °F 66% 29.71 in - ENE 6.9 mph - N/A   Clear
10:30 PM 91.4 °F 107.2 °F 78.8 °F 66% 29.71 in - ENE 8.1 mph - N/A   Clear
11:00 PM 91.4 °F 107.2 °F 78.8 °F 66% 29.71 in - ENE 9.2 mph - N/A   Clear
11:30 PM 91.4 °F 111.0 °F 80.6 °F 71% 29.71 in - ENE 8.1 mph - N/A   Clear